loading
|

FENGYUN 1C DEB, 30752

Orbit data source: Space-Track

FENGYUN 1C DEB, 30752 is space debris in SSO originally from a launch on Mon, 10 May 1999 UTC launched from the Taiyaun Space Center, China (TSC). Fengyun 1C debris stems from the Chinese weather satellite Fengyun-1C, which was intentionally destroyed by a Chinese anti-satellite missile in 2007. This event dramatically increased the amount of space debris, with thousands of trackable fragments posing hazards to satellites and human spaceflight. The Fengyun 1C debris cloud has become a focal point in discussions about space sustainability and the need for international regulations to prevent the creation of new debris.

Loading next visibility...
Next conjunction unknown
Loading greatness...
FENGYUN 1C DEB details
Identifier
30752, 1999-025ATN
Orbit
SSO
Last TLE update4 hours ago
Origin
Flag of CNCASC (CN / PRC)
ManufacturerUnknown
MissionSpacecraft
Bus & MotorUnknown bus, Unknown motor
MassUnknown
Launch date (UTC)
1999-05-10 (25 years ago)
Launch vehicleUnknown
Launch site
Taiyaun Space Center, China (TSC)
Object type
Payload
Rocket body
Debris
Shape & HBRUnknown
Radar Cross SectionSmall (<0.1 m²)

Expand to show TLE details & history

TLE from 4 hours ago
0 FENGYUN 1C DEB
1 30752U 99025ATN 24288.50978083  .00229294  00000-0  13210-1 0  9992
2 30752  98.8582 137.0070 0009027  42.6753  19.3323 15.11246375920593
Epoch: 2024-10-14T12:14Z
Definitive object data (Epoch: 2024-10-14T12:14:05.063Z)
Latitude60.88026°
Longitude-86.2053°
Altitude536.887 km
Speed7.603 km/s
True Right ascension08h 03m 24s
True Declination60° 43' 45"
Sunlit
Object was in daylight at TLE epoch
Predictive object data (real-time)
Latitude16.91047°
Longitude112.82555°
Altitude537.792 km
Speed7.593 km/s
Apparent Right ascension21h 47m 38s
Apparent Declination-10° 17' 48"
Sunlit
Object is in full shadow
Predictive observer data (real-time)
Local Sidereal Time10:25:43
Azimuth18.525° NNE
Elevation-59.198°
Doppler factor1
Orbital elements
Apogee535.679 km
Perigee523.208 km
Semi-major axis6,907.58 km
Eccentricity0.0009027
Inclination98.8582°
RAAN137.007°
Arg. of periapsis42.6753°
True anomaly19.36658°
Mean anomaly19.3323°
Eccentric anomaly19.34944°
Mean motion3.78054 °/min
BSTAR0.01321
Period95.22 mins
No data available

FENGYUN 1C DEB Visibility forecast

Observer location: 39.9160978°, -105.1181434

Span
Click to sort rows by Start time (UTC) header in descending order
Start Az.
Max El. time (UTC)
Max El. Az.
Max El.
End time (UTC)
End Az.
7 mins2024-10-15 02:49:27.297Z21.985° NNE2024-10-15 02:52:27.297Z76.895° E40.969°2024-10-15 02:56:27.297Z184.203° SSW
5 mins2024-10-15 13:32:27.297Z118.16° SE2024-10-15 13:34:27.297Z57.592° ENE29.454°2024-10-15 13:37:27.297Z5.01° NNE